Showing default

LEMUR 2 ESPERANZA, 63352

Orbit data source: Space-Track

LEMUR 2 ESPERANZA, 63352 is a payload satellite owned by OroraTech (US) in SSO that was launched on Wed, 26 Mar 2025 UTC via an ELECTRON launch vehicle from the Rocket Lab Launch Complex (RLLC). Payload-class satellites include a variety of spacecraft equipped with specific instruments for various scientific and technological missions. These include communications satellites like Starlink; space stations such as the ISS; scientific satellites like the Hubble; Earth observation satellites from companies like Planet Labs, Umbra, and HawkEye 360; GPS; miniature CubeSats for education and research; and military/defense satellites.

Loading next visibility...
Identifier
63352, 2025-061B
Orbit
SSO
Last TLE update
11 hours ago
Origin
Manufacturer
Spire/Glasgow
Mission
Operational Commercial Imaging
Bus & Motor
CUBESAT 6U, Unknown motor
Mass
~15 kg wet, ~15 kg dry
Launch date (UTC)
2025-03-26 (3 months ago)
Launch vehicle
ELECTRON
Launch site
Rocket Lab Launch Complex (RLLC)
Object type
Payload
Rocket body
Debris
Shape & HBR
Box + 2 Pan, 0.4 m
Radar Cross Section
0.065 m², Medium (>0.1 m² and < 1m²)

Expand to show TLE details & history

TLE from 11 hours ago
0 LEMUR 2 ESPERANZA
1 63352U 25061B   25189.88639510  .00002965  00000-0  18640-3 0  9992
2 63352  97.5220 164.5802 0020153  10.3811 349.7830 15.09843750 15728
Epoch: 2025-07-08T21:16Z
TLE epoch observation values (Epoch: 2025-07-08T21:16:24.536Z)
Latitude
-0.00007°
Longitude
-81.59697°
Altitude
526.034 km
Speed
7.608 km/s
True Right ascension
10h 58m 19s
True Declination
0° 00' 00"
Sunlit
Object was in daylight at epoch
Visualization orbit readout
Latitude
-58.87559°
Longitude
-68.59117°
Altitude
554.278 km
Speed
7.586 km/s
Apparent Right ascension
09h 46m 45s
Apparent Declination
-52° 38' 33"
Sunlit
Object is in daylight
Visualization observer readout
Local Sidereal Time
20:18:18
Azimuth
222.54° SW
Elevation
-70.254°
Doppler factor
1
Orbital elements
Apogee altitude
547.591 km
Perigee altitude
519.732 km
Semi-major axis
6,911.798 km
Eccentricity
0.00202
Inclination
97.522°
RAAN
164.5802°
Arg. of periapsis
10.3811°
True anomaly
Unknown
Mean anomaly
349.783°
Eccentric anomaly
Unknown
Mean motion
3.77708 °/min
Orbital period
95.31 mins
BSTAR
0.0001864
Loading maneuver chart data...
Loading SW <> Apogee altitude chart data...
Loading historical data...
Loading historical data...
Loading historical data...
Loading historical data...
Loading historical data...
Loading historical data...
Loading historical data...

LEMUR 2 ESPERANZA Visibility forecast

Observer location: undefined°, undefined°

Span
Click to sort rows by Start time (UTC) header in descending order
Start Az.
Max El. time (UTC)
Max El. Az.
Max El.
End time (UTC)
End Az.
5 mins2025-07-09 10:34:41.660Z44.301° NE2025-07-09 10:36:41.660Z83.331° E25.22°2025-07-09 10:39:41.660Z149.878° SSE
4 mins2025-07-09 12:09:41.660Z324.257° NNW2025-07-09 12:11:41.660Z285.862° WNW18.143°2025-07-09 12:13:41.660Z251.573° W
5 mins2025-07-09 22:51:41.660Z206.627° SW2025-07-09 22:53:41.660Z261.283° W31.122°2025-07-09 22:56:41.660Z327.131° NNW
|